Showing default

IRIDIUM 141, 43077

Orbit data source: Space-Track

IRIDIUM 141, 43077 is a payload satellite owned by Iridium (US) in LEO that was launched on Sat, 23 Dec 2017 UTC via an FALCON 9 launch vehicle from the Air Force Western Test Range (AFWTR). Payload-class satellites include a variety of spacecraft equipped with specific instruments for various scientific and technological missions. These include communications satellites like Starlink; space stations such as the ISS; scientific satellites like the Hubble; Earth observation satellites from companies like Planet Labs, Umbra, and HawkEye 360; GPS; miniature CubeSats for education and research; and military/defense satellites.

Loading next visibility...
Identifier
43077, 2017-083H
Orbit
LEO
Country
Flag of USUS
Related business
Manufacturer
OATK SSG Gilbert
Mission
Operational Commercial Communications
Bus & Motor
ELITEBUS, Unknown motor
Mass
860 kg wet, 700 kg dry
Launch date (UTC)
2017-12-23 (8 years ago)
Launch vehicle
FALCON 9
Launch site
Air Force Western Test Range (AFWTR)
Object type
Payload
Rocket body
Debris
Shape & HBR
Trap Box + 2 Pan, 4.8 m
Radar Cross Section
10.154 m², Large (>1 m²)

Expand to show TLE details & history
Last TLE update: 14 hours ago

TLE from 14 hours ago
0 IRIDIUM 141
1 43077U 17083H   26033.47929681  .00000031  00000-0  39125-5 0  9999
2 43077  86.3967  18.2796 0002291  89.2690 270.8768 14.34217450424866
Epoch: 2026-02-02T11:30Z
TLE epoch observation values (Epoch: 2026-02-02T11:30:11.244Z)
Latitude
-0.00005°
Longitude
73.05875°
Altitude
780.694 km
Speed
7.464 km/s
True Right ascension
01h 13m 07s
True Declination
0° 00' 00"
Sunlit
Object was in daylight at epoch
Visualization orbit readout
Latitude
Unknown
Longitude
Unknown
Altitude
Unknown
Speed
Unknown
Apparent Right ascension
Unknown
Apparent Declination
Unknown
Sunlit
N/A
Visualization observer readout
Local Sidereal Time
03:28:29
Azimuth
Unknown
Elevation
Unknown
Doppler factor
Unknown
Orbital elements
Apogee altitude
776.271 km
Perigee altitude
772.994 km
Semi-major axis
7,152.77 km
Eccentricity
0.00023
Inclination
86.3967°
RAAN
18.2796°
Arg. of periapsis
89.269°
True anomaly
270.85055°
Mean anomaly
270.8768°
Eccentric anomaly
270.86368°
Mean motion
3.58783 °/min
Orbital period
100.34 mins
BSTAR
0.0000039125
Loading maneuver chart data...
Computing Atmospheric mass density...
Loading historical data...
Loading historical data...
Loading historical data...
Loading historical data...
Loading historical data...
Loading historical data...
Loading historical data...

Documentation

Showing up to 5 results
|